RH
22 22 16 14 12 7 6 7 7 11 16 15 16 18 28 32 34 55 70 70 72 81 82 90 84 93 88 84 82 77 73 70 69 71 75 79 80 80 80 77 78 79 81 82 80 76 77 76 73
20 17 15 11 10 7 5 7 7 13 17 17 19 19 23 43 45 64 66 92 86 87 88 96 89 84 86 90 87 85 82 77 73 71 71 71 74 78 80 81 80 81 81 82 83 83 80 76 72
21 16 13 11 10 8 8 7 8 15 15 12 13 14 19 41 59 84 91 85 75 86 92 98 91 89 88 88 88 87 86 85 83 81 78 75 74 75 76 78 79 76 79 80 88 89 83 74 69
13 11 10 10 9 7 8 8 10 12 11 10 11 24 39 53 62 89 82 72 72 76 88 90 85 85 84 84 84 84 85 85 85 84 85 84 82 80 80 79 76 76 76 76 80 85 86 79 78
12 10 12 12 9 8 9 8 10 12 10 11 11 23 43 60 73 74 71 70 71 74 78 86 85 84 84 84 84 83 80 78 78 79 80 83 85 87 85 84 82 78 76 76 76 77 78 81 80
11 9 12 10 8 9 10 9 10 10 10 10 12 28 39 61 64 66 67 66 68 70 68 66 65 74 82 83 84 83 81 80 79 76 74 74 76 81 85 84 83 85 82 77 75 76 76 74 77
11 11 12 9 9 10 10 10 10 11 10 12 13 24 43 51 62 62 60 56 57 59 57 58 60 58 40 33 41 52 66 72 71 73 72 72 72 71 70 72 81 84 84 83 80 78 78 76 74
10 10 11 10 9 10 9 9 9 10 10 12 14 23 46 50 57 56 53 51 50 50 50 51 51 57 56 54 23 21 21 22 25 34 46 59 64 69 78 72 79 89 87 85 80 78 80 80 77
8 11 11 9 10 10 8 10 8 8 9 10 12 19 32 51 50 48 49 49 47 45 45 50 50 54 50 41 45 50 46 44 43 44 38 40 48 54 56 58 70 75 72 76 81 80 79 84 83
9 11 10 10 10 10 9 8 8 9 9 13 18 33 42 46 43 42 38 38 36 36 41 44 51 54 46 36 48 46 45 46 50 55 59 49 53 46 43 42 46 58 75 82 66 57 64 77 81
8 11 9 10 9 9 7 8 7 9 10 12 22 33 37 38 35 28 24 26 29 38 41 40 48 56 53 48 44 42 40 47 48 53 66 58 55 48 43 41 36 43 43 56 78 80 76 70 61
11 10 9 8 8 8 8 6 8 7 9 8 14 25 30 30 24 20 22 26 29 33 39 43 47 53 58 48 42 45 43 49 50 54 65 64 53 52 54 44 47 41 34 40 42 70 82 76 70
12 12 9 8 7 8 8 8 7 7 8 7 16 21 22 22 21 21 22 26 29 34 40 45 49 54 54 48 52 54 52 49 61 54 62 72 66 60 61 56 53 48 43 40 41 43 54 80 84
12 9 9 8 8 8 8 9 8 7 9 11 18 19 19 19 20 26 27 29 30 35 42 46 48 55 55 50 56 53 49 52 51 53 68 75 74 71 64 60 54 51 50 53 57 54 53 49 74
10 13 12 10 9 9 7 9 9 7 11 15 18 18 17 19 22 25 26 27 29 34 41 43 42 54 56 50 52 47 46 52 50 53 58 72 75 74 73 59 56 55 63 62 55 54 52 47 43
17 16 17 12 10 9 9 13 9 7 12 15 17 17 18 19 21 24 27 27 29 32 38 45 46 53 57 55 52 50 49 51 49 52 54 68 76 75 74 62 59 65 67 59 60 59 54 54 51
18 21 16 14 10 10 10 12 9 10 11 12 16 16 18 20 21 26 28 27 29 36 38 43 48 53 57 54 52 52 50 45 47 50 52 69 72 76 76 66 62 72 63 61 63 65 68 64 57
18 18 16 16 12 11 12 12 10 10 12 11 14 16 18 20 22 27 29 30 30 39 42 44 44 54 55 47 41 38 38 41 44 48 52 68 69 72 75 67 68 71 67 66 72 79 78 75 67
17 18 18 14 12 14 14 14 12 10 11 13 12 16 18 21 22 29 31 33 32 40 39 42 42 47 43 37 38 38 39 41 43 47 54 63 68 71 72 67 70 70 72 76 77 81 82 78 74
19 22 20 15 12 15 16 16 13 12 11 12 12 14 17 20 23 31 34 34 34 38 40 38 39 44 42 39 41 45 43 42 43 45 53 56 63 68 66 73 74 77 80 80 78 85 88 83 81
24 24 23 22 18 17 18 19 16 13 12 10 12 11 14 19 25 32 33 34 36 37 41 38 40 42 48 52 38 40 36 34 35 44 47 54 60 65 68 72 77 82 88 85 87 88 86 87 85
25 18 20 22 26 28 16 22 13 10 12 11 14 14 14 18 23 29 31 33 35 40 43 41 44 42 45 53 46 52 42 40 45 44 48 56 56 60 65 71 75 80 86 89 92 88 94 92 90
18 15 21 23 24 22 19 21 16 11 13 14 15 16 17 19 25 28 30 30 33 41 44 46 43 44 50 53 55 50 49 48 47 48 54 52 53 56 61 69 75 78 85 88 90 94 96 93 92
18 23 22 22 22 29 20 20 16 13 13 13 14 18 19 21 26 29 30 32 35 46 47 47 42 43 50 52 55 57 58 58 53 52 53 50 54 54 58 67 74 79 82 90 94 95 95 93 91
21 25 29 28 29 27 13 14 12 14 14 15 14 16 21 26 31 34 33 33 32 40 45 42 43 41 48 52 54 56 58 56 52 52 52 59 55 57 60 70 74 82 90 93 95 94 93 93 92
23 23 32 32 28 22 14 20 14 15 17 19 21 15 23 29 35 36 33 31 36 41 44 46 44 41 46 51 55 56 58 54 55 57 63 61 60 62 66 70 78 85 90 90 91 93 92 90 93
31 32 24 39 33 41 29 21 13 16 18 21 20 22 28 33 37 38 33 34 36 39 49 53 47 43 47 53 56 55 59 63 64 67 68 66 66 66 65 73 78 82 88 90 89 90 91 91 92
30 27 59 61 72 61 31 24 21 19 20 21 25 28 34 36 39 37 36 38 37 39 48 53 50 47 51 56 59 60 64 67 68 69 72 75 72 71 72 74 78 85 87 91 88 89 89 90 90
32 37 32 35 62 48 43 28 19 23 20 25 25 29 35 39 40 38 38 40 40 41 43 49 51 51 54 57 62 66 68 70 70 70 74 77 78 73 74 76 79 83 86 86 88 86 86 86 90
23 40 38 56 54 46 42 37 17 22 21 22 26 30 35 38 39 38 41 44 43 42 42 45 52 54 56 57 63 66 69 71 71 74 77 79 78 75 75 76 79 82 85 88 87 86 89 88 88
Wind_Speed
12 12 11 11 7 8 17 5 8 5 6 5 8 8 17 17 10 6 9 10 12 14 12 11 10 9 8 7 5 4 4 4 4 2 1 0 1 3 3 4 4 3 3 5 5 6 6 6 6
10 11 13 8 9 13 11 12 10 12 13 9 10 8 14 18 19 13 10 15 17 14 11 11 11 10 9 7 6 5 4 3 3 2 2 1 2 4 5 5 5 5 6 6 6 7 8 9 8
10 10 9 10 13 14 5 7 10 12 12 9 5 11 7 11 14 5 13 12 12 13 13 12 11 10 10 9 7 6 4 3 2 0 0 2 4 6 6 6 7 7 7 7 8 7 9 10 9
7 7 6 10 17 4 7 2 13 14 7 6 13 10 8 11 7 5 8 10 12 12 13 10 9 9 9 8 7 7 6 4 3 2 2 4 5 7 8 8 9 9 8 8 9 9 9 10 11
12 7 11 14 17 5 1 1 13 13 11 10 11 9 9 9 13 11 11 11 11 12 12 11 8 8 7 7 6 5 3 2 2 2 3 4 6 8 9 10 10 11 11 11 10 10 10 11 11
9 5 11 13 15 6 4 5 10 13 9 7 5 13 9 15 13 11 11 11 11 12 11 10 10 9 8 6 4 3 2 2 2 2 3 4 6 7 9 11 11 12 12 13 12 12 12 12 12
12 11 15 17 12 5 7 5 10 11 10 9 11 11 9 12 13 14 13 12 12 12 10 8 8 8 8 7 5 5 4 4 4 4 4 3 4 6 9 11 11 13 14 14 14 14 13 14 14
8 9 18 11 13 9 8 8 11 12 11 7 6 6 10 18 17 16 14 12 11 10 8 7 6 7 6 6 6 6 6 7 7 8 9 8 7 11 12 12 9 12 15 16 17 16 16 16 16
8 9 13 14 8 5 9 8 6 6 10 5 4 4 20 25 22 18 15 12 11 9 7 7 6 7 7 6 7 10 11 13 12 11 12 9 9 10 10 13 15 15 16 17 18 19 19 18 18
9 11 16 11 9 8 7 12 13 8 11 5 9 14 22 24 22 19 17 14 11 8 7 6 7 8 8 7 8 8 8 9 10 11 12 11 11 10 14 13 16 13 14 15 19 20 21 21 17
8 12 9 6 6 8 7 11 11 15 14 14 14 17 19 20 20 18 15 13 10 7 6 7 7 8 8 7 8 7 8 9 8 10 12 11 11 10 10 11 11 12 13 15 15 14 20 16 18
11 14 9 10 3 9 12 11 9 13 2 2 18 17 18 16 14 13 12 11 10 7 5 6 7 8 9 7 7 8 8 9 9 10 11 11 11 11 12 11 12 12 12 14 15 18 19 18 16
15 15 10 11 9 12 12 11 11 14 6 5 17 17 16 15 15 14 12 9 8 6 4 5 6 7 7 7 8 8 9 9 10 10 11 11 10 11 12 12 13 12 12 13 14 16 19 21 20
12 10 13 13 14 14 14 15 10 14 7 10 16 17 16 15 15 13 12 10 8 5 3 4 5 6 6 7 8 8 8 10 10 10 10 11 12 12 13 13 12 12 13 13 15 16 18 20 21
12 14 15 18 17 16 14 19 21 19 13 15 16 15 16 15 17 15 13 10 8 5 3 3 3 6 6 6 7 7 7 9 10 10 11 13 13 14 15 14 13 13 15 15 15 15 16 18 19
16 16 16 15 18 15 13 18 21 18 17 17 17 17 16 17 17 15 12 10 8 5 3 2 3 5 6 6 6 6 7 8 9 9 10 13 15 15 16 15 14 15 16 15 15 15 16 17 19
16 15 16 14 12 10 13 16 16 15 17 17 16 16 16 16 16 15 13 11 8 6 4 2 2 4 5 5 5 5 6 7 8 9 10 13 13 15 16 15 15 16 15 14 15 16 16 18 20
13 13 10 13 6 8 15 18 17 14 15 16 18 17 16 16 15 15 12 9 8 6 5 3 2 4 5 4 5 4 4 7 7 8 10 12 12 14 15 14 15 16 15 15 15 17 18 18 20
14 13 17 15 11 5 15 17 17 15 16 16 17 18 18 18 17 16 12 9 8 5 4 3 2 4 4 4 5 5 6 8 8 8 11 11 14 14 15 14 15 15 16 17 17 17 19 20 20
15 16 17 16 16 9 14 19 20 21 19 18 19 19 21 19 17 15 14 11 8 7 5 3 3 3 4 4 4 5 7 7 8 8 12 11 15 14 15 16 16 16 16 16 17 17 19 17 18
16 17 16 16 16 14 19 23 21 25 22 16 20 20 21 21 20 16 16 13 11 8 5 4 3 3 4 6 5 7 6 6 7 11 11 13 13 13 14 15 15 16 16 16 17 16 16 18 19
17 16 15 16 15 14 6 15 19 15 17 17 19 18 18 19 18 17 16 13 10 8 7 5 3 3 5 7 7 8 8 10 11 11 12 15 13 14 14 15 16 17 16 16 16 17 20 18 18
20 13 13 16 18 19 22 14 15 18 17 16 17 17 16 17 18 17 15 14 10 8 7 6 4 4 5 6 7 9 9 10 11 13 14 14 15 14 15 16 17 17 17 17 17 18 19 19 19
11 8 15 15 14 17 18 17 21 14 10 19 17 16 17 17 16 14 14 11 11 8 7 6 4 4 5 5 6 7 8 10 11 13 14 15 17 16 16 18 20 19 19 18 20 20 20 21 21
11 11 11 14 13 18 15 19 19 8 6 5 4 14 16 15 14 13 11 12 11 8 7 6 4 4 4 4 5 6 8 9 11 12 13 16 16 17 18 21 21 21 21 21 20 20 21 22 22
14 15 10 12 15 18 18 15 10 8 8 7 3 8 16 16 14 14 15 14 10 8 6 5 4 3 4 4 5 6 8 9 11 12 14 14 16 18 20 20 22 21 22 22 22 21 22 22 23
18 17 17 18 20 14 18 22 10 8 9 8 9 9 13 15 14 14 14 12 11 8 6 5 4 3 4 5 6 6 8 9 11 12 13 14 17 19 20 21 21 21 22 22 23 22 23 22 24
15 6 5 5 5 11 16 19 17 10 12 8 11 13 13 14 14 14 13 13 11 9 8 5 4 4 4 5 5 6 6 8 9 11 13 15 17 19 21 21 21 22 22 21 22 23 23 24 24
8 12 14 10 5 10 14 13 9 9 4 10 8 10 13 14 14 13 13 13 10 8 6 5 4 3 4 5 5 6 7 8 9 10 13 15 18 19 20 21 21 21 21 22 23 23 25 25 25
13 16 19 12 14 9 15 19 17 7 4 5 8 8 11 13 14 14 15 12 9 7 5 4 4 3 4 5 7 8 9 11 12 12 13 14 16 19 20 21 22 21 21 22 23 25 24 25 29
Wind_Direction
306 298 279 270 243 231 262 183 28 154 119 353 39 14 64 38 17 61 93 80 77 70 68 64 78 81 82 82 77 81 90 101 104 114 127 189 277 265 263 257 254 255 266 268 264 254 254 262 269
298 289 255 271 254 254 242 100 210 109 94 102 98 122 85 75 83 105 97 68 79 73 72 71 75 78 84 87 83 75 70 76 99 145 169 201 247 264 265 264 263 265 271 281 273 269 268 269 274
289 271 273 241 245 263 32 160 114 101 146 138 107 72 91 97 48 68 82 91 87 76 74 81 83 79 77 74 73 72 62 60 61 48 272 246 251 253 257 259 256 266 271 280 282 273 271 273 275
273 216 241 254 260 237 348 97 125 157 163 158 131 105 90 28 75 102 110 105 93 82 76 86 83 81 81 78 72 68 61 49 35 11 302 280 269 265 262 264 265 263 267 274 277 280 280 276 276
243 256 261 241 256 88 320 198 159 170 152 153 159 125 101 88 104 106 105 100 98 90 79 79 87 95 95 95 94 89 87 75 31 345 318 292 275 271 267 262 265 270 269 269 276 281 277 277 278
265 259 256 256 235 130 229 185 196 191 148 143 176 131 99 126 123 114 111 107 100 94 86 76 66 79 77 69 66 55 30 11 340 318 311 304 302 292 283 275 269 269 271 273 276 277 278 276 273
256 279 269 287 293 158 199 212 215 209 167 181 141 156 121 140 131 130 127 118 106 98 97 91 86 68 65 59 40 24 359 343 332 322 311 308 324 325 306 291 283 276 270 269 271 274 274 273 273
279 279 266 261 265 246 120 210 222 222 188 90 172 168 165 142 145 140 136 126 113 105 93 74 62 60 55 48 19 6 355 346 333 316 304 304 331 326 311 320 283 275 274 271 271 270 272 271 271
264 266 261 255 234 266 128 202 217 349 123 182 85 352 127 148 149 149 143 133 123 111 96 75 49 35 33 27 10 14 357 2 2 352 332 344 329 325 313 308 292 289 284 279 275 274 273 271 272
257 275 277 17 349 299 171 226 177 214 175 155 136 104 134 153 160 161 159 149 144 130 96 68 49 32 31 22 12 8 1 355 355 354 349 345 333 323 323 322 315 318 310 305 289 276 273 271 267
275 265 348 300 291 270 231 238 161 220 194 182 172 151 155 163 168 170 157 155 145 129 96 64 46 36 32 21 15 5 359 353 350 350 349 344 337 329 330 322 318 312 305 297 301 291 263 254 255
271 265 284 290 264 267 255 239 196 239 4 99 150 162 163 169 170 163 155 151 148 132 97 66 46 37 24 23 13 4 359 349 349 343 347 353 345 335 330 324 318 314 308 303 304 295 302 302 294
258 269 261 267 253 251 262 260 231 229 112 165 138 164 171 170 167 163 158 145 143 131 103 70 48 36 19 18 13 359 358 347 348 345 345 355 346 334 331 324 323 315 311 305 300 295 301 296 298
313 291 280 264 256 249 251 239 227 242 158 153 163 174 176 176 164 162 168 159 152 134 102 71 49 34 20 15 9 4 352 349 347 345 344 352 350 340 335 328 327 324 321 313 305 299 294 292 289
276 270 264 247 245 251 238 247 227 234 181 178 181 185 182 176 177 178 176 162 156 144 118 73 48 24 18 10 6 356 347 352 346 344 343 348 351 345 337 330 329 327 323 320 317 311 300 292 284
261 257 263 259 219 227 246 256 232 201 183 192 193 189 185 184 183 172 176 164 160 149 140 83 45 15 8 1 357 348 342 350 343 343 342 344 349 346 338 332 328 326 326 324 325 321 317 307 296
236 259 261 256 192 238 209 255 267 150 190 198 201 194 192 183 191 176 178 171 161 159 148 115 66 10 4 358 351 336 337 343 341 340 341 341 346 340 333 327 325 328 326 324 325 324 322 314 306
278 249 240 266 249 214 247 236 253 180 209 222 198 205 197 193 193 176 185 172 163 157 136 107 68 19 0 3 353 336 332 342 342 340 340 341 339 338 334 329 329 332 329 328 327 322 318 313 308
296 283 281 277 254 240 263 260 254 227 199 224 224 207 203 202 191 177 185 184 169 150 135 108 71 24 15 8 359 342 340 340 337 337 342 342 340 337 335 329 329 333 331 328 326 325 324 321 320
254 261 263 271 270 263 264 264 260 250 221 211 226 210 207 195 185 180 188 186 186 154 147 130 89 45 20 7 354 336 328 330 330 335 339 339 337 335 334 332 330 330 329 327 330 331 322 317 318
249 258 267 274 286 268 266 268 263 257 247 205 226 227 206 196 185 186 193 188 180 162 150 132 97 62 29 6 351 345 339 337 341 339 336 334 332 331 330 329 328 328 327 324 325 325 321 317 310
250 254 253 269 276 272 310 284 284 298 211 210 220 227 212 195 184 190 188 184 182 160 148 132 101 54 27 15 4 357 353 344 339 331 328 328 330 330 331 330 330 327 324 322 322 321 316 312 303
260 272 287 267 269 275 261 262 260 257 208 213 219 214 214 194 182 189 184 180 171 164 144 129 114 76 39 21 8 357 355 344 333 329 329 329 330 330 331 331 329 326 324 319 317 316 313 309 302
262 266 246 251 256 257 258 259 268 277 305 192 202 206 203 187 178 172 180 167 167 164 142 128 110 84 47 23 6 360 351 339 333 329 325 332 328 329 330 330 328 326 323 320 316 313 308 305 302
241 231 249 241 231 254 253 248 263 152 110 32 180 187 185 173 170 172 169 189 172 156 137 126 101 88 49 19 3 356 347 334 329 329 330 328 327 328 328 329 326 322 317 316 315 312 306 303 300
215 235 237 262 256 269 289 253 266 53 104 129 134 180 166 171 167 176 183 183 168 165 131 116 93 74 37 13 1 355 346 339 333 333 326 322 325 324 325 325 323 319 315 314 313 310 306 305 303
243 242 235 258 267 273 267 274 256 162 151 157 161 165 167 169 176 184 173 175 169 155 129 111 93 66 37 13 3 355 346 343 338 333 328 325 325 325 323 323 321 319 316 316 314 309 306 306 304
239 248 232 232 244 250 253 252 258 210 172 164 151 162 165 169 176 177 170 174 170 153 130 108 80 53 31 13 5 355 348 342 339 336 334 327 326 325 324 323 322 321 320 317 316 313 312 310 306
203 236 241 237 244 270 269 270 39 48 39 166 162 168 171 175 176 169 175 175 159 145 124 108 82 57 30 11 358 353 349 346 342 341 337 331 326 327 325 323 323 322 320 321 319 315 314 313 312
284 211 250 236 231 233 253 260 295 134 95 140 155 172 168 172 175 170 165 163 156 136 119 101 79 47 22 10 4 0 352 347 343 341 337 334 329 328 326 326 324 324 324 323 323 318 316 317 313